User: anonymous   Login
Location: Unspecified
(0.0000°N, 0.0000°E)
Time: 04:08:31
(UTC+00:00)
Language:

NOSS 2-1 (D) - Orbit

View from above orbital plane
View from above orbital plane
View from above satellite
View from above satellite

Ground track
Ground track

The orbit data is extracted from the following two-line orbital elements,

1 20692U 90050D   18019.75123913 0.00000000  00000-0  00000-0 0    06
2 20692  63.3430 352.0827 0809500  34.3799 325.6201 13.41761439    02
Epoch (UTC): 19 January 2018 18:01:47
Eccentricity: 0.0809500
inclination: 63.3430°
perigee height: 497 km
apogee height: 1708 km
right ascension of ascending node: 352.0827°
argument of perigee: 34.3799°
revolutions per day: 13.41761439
mean anomaly at epoch: 325.6201°
orbit number at epoch: 0

The dashed part of the orbit path shows where the satellite is in the earth's shadow,  

DLR